EA3CIU-1 Weather Reports


time (UTC)temp
F
wind
direction
speed
knots
gust
knots
rain 1hr
in
rain 24hr
in
rain mn
in
humidity
%
barometer
mb
20260506180707 62 170 3.5 7.0 0.00 0.00 0.00 61 1010.0
20260506175706 63 154 4.3 7.0 0.00 0.00 0.00 58 1010.0
20260506175207 63 105 3.5 7.0 0.00 0.00 0.00 57 1010.0
20260506174707 63 136 3.5 7.0 0.00 0.00 0.00 55 1010.0
20260506174205 64 170 3.5 7.0 0.00 0.00 0.00 53 1010.0
20260506173706 64 162 3.5 7.0 0.00 0.00 0.00 51 1010.0
20260506173206 64 180 3.5 7.0 0.00 0.00 0.00 51 1010.0
20260506172706 64 172 2.6 7.0 0.00 0.00 0.00 51 1010.0
20260506171706 64 167 3.5 7.0 0.00 0.00 0.00 50 1010.0
20260506170707 64 129 2.6 7.0 0.00 0.00 0.00 49 1010.0
20260506170208 64 185 5.2 7.0 0.00 0.00 0.00 48 1010.0
20260506165705 65 112 2.6 7.0 0.00 0.00 0.00 47 1009.0
20260506165206 65 140 3.5 7.0 0.00 0.00 0.00 46 1009.0
20260506164706 65 18 3.5 7.0 0.00 0.00 0.00 46 1009.0
20260506164205 66 146 4.3 5.2 0.00 0.00 0.00 45 1009.0
20260506163705 66 139 4.3 7.0 0.00 0.00 0.00 45 1009.0
20260506162706 66 146 4.3 7.8 0.00 0.00 0.00 45 1009.0
20260506161705 66 155 3.5 7.0 0.00 0.00 0.00 45 1009.0
20260506161206 66 157 5.2 10.4 0.00 0.00 0.00 45 1009.0
20260506160708 66 135 5.2 10.4 0.00 0.00 0.00 44
20260506155705 66 197 6.1 8.7 0.00 0.00 0.00 44 1009.0
20260506155206 67 92 4.3 11.3 0.00 0.00 0.00 45
20260506154707 67 180 6.1 11.3 0.00 0.00 0.00 45
20260506153706 67 152 6.1 9.6 0.00 0.00 0.00 45
20260506153206 67 119 6.1 8.7 0.00 0.00 0.00 44
20260506152706 68 160 3.5 10.4 0.00 0.00 0.00 44
20260506152207 67 163 4.3 10.4 0.00 0.00 0.00 44 1009.0
20260506151705 67 106 4.3 10.4 0.00 0.00 0.00 44
20260506151206 68 136 6.1 10.4 0.00 0.00 0.00 44
20260506150706 68 157 4.3 10.4 0.00 0.00 0.00 43
20260506145705 68 154 3.5 8.7 0.00 0.00 0.00 43
20260506145207 68 156 4.3 8.7 0.00 0.00 0.00 43
20260506144206 68 151 5.2 7.8 0.00 0.00 0.00 42
20260506143706 67 160 3.5 7.8 0.00 0.00 0.00 42
20260506143206 67 166 2.6 9.6 0.00 0.00 0.00 42
20260506142705 67 130 3.5 9.6 0.00 0.00 0.00 42
20260506142206 67 138 2.6 9.6 0.00 0.00 0.00 42
20260506141705 67 169 3.5 8.7 0.00 0.00 0.00 42
20260506141206 67 177 4.3 8.7 0.00 0.00 0.00 42
20260506140207 67 153 3.5 7.8 0.00 0.00 0.00 41 1010.0
20260506135706 68 70 4.3 9.6 0.00 0.00 0.00 41 1010.0
20260506134706 69 138 4.3 9.6 0.00 0.00 0.00 40
20260506133705 68 142 3.5 8.7 0.00 0.00 0.00 41
20260506133206 67 166 3.5 8.7 0.00 0.00 0.00 41
20260506132706 68 158 5.2 8.7 0.00 0.00 0.00 39 1010.0
20260506132206 68 164 3.5 7.0 0.00 0.00 0.00 39 1010.0
20260506131206 68 181 4.3 7.0 0.00 0.00 0.00 39 1010.0
20260506130206 67 143 3.5 8.7 0.00 0.00 0.00 41 1010.0
20260506125705 67 143 4.3 8.7 0.00 0.00 0.00 40 1010.0
20260506125206 67 183 4.3 7.8 0.00 0.00 0.00 40 1010.0
20260506124706 67 114 3.5 7.8 0.00 0.00 0.00 40 1010.0
20260506124205 67 176 4.3 5.2 0.00 0.00 0.00 40
20260506123706 68 121 3.5 3.5 0.00 0.00 0.00 39
20260506123206 68 151 1.7 3.5 0.00 0.00 0.00 39 1010.0
20260506122705 68 165 1.7 5.2 0.00 0.00 0.00 39 1010.0
20260506122206 67 159 0.0 5.2 0.00 0.00 0.00 39 1010.0
20260506121706 67 138 0.0 5.2 0.00 0.00 0.00 39 1010.0
20260506120706 68 331 2.6 4.3 0.00 0.00 0.00 40
20260506120207 68 357 0.0 4.3 0.00 0.00 0.00 40 1010.0
20260506115705 68 341 0.0 5.2 0.00 0.00 0.00 39 1010.0
20260506115206 68 336 2.6 5.2 0.00 0.00 0.00 39 1010.0
20260506114706 68 5 3.5 5.2 0.00 0.00 0.00 40 1010.0
20260506114206 69 338 1.7 4.3 0.00 0.00 0.00 40 1010.0
20260506113705 68 72 3.5 4.3 0.00 0.00 0.00 41 1010.0
20260506113206 69 137 0.0 5.2 0.00 0.00 0.00 42 1010.0
20260506112707 69 103 0.0 5.2 0.00 0.00 0.00 42 1011.0
20260506111705 67 115 2.6 5.2 0.00 0.00 0.00 42 1011.0
20260506111205 66 127 2.6 5.2 0.00 0.00 0.00 43 1011.0
20260506110206 67 353 1.7 3.5 0.00 0.00 0.00 43 1011.0
20260506105705 67 128 0.0 4.3 0.00 0.00 0.00 45 1011.0
20260506105206 67 87 0.0 4.3 0.00 0.00 0.00 44 1011.0
20260506104705 66 37 1.7 4.3 0.00 0.00 0.00 45 1011.0
20260506104205 66 331 1.7 4.3 0.00 0.00 0.00 44 1011.0
20260506103705 66 100 3.5 4.3 0.00 0.00 0.00 45 1011.0
20260506102705 66 329 1.7 5.2 0.00 0.00 0.00 46 1011.0
20260506102205 65 38 1.7 5.2 0.00 0.00 0.00 46 1011.0
20260506101206 65 341 3.5 5.2 0.00 0.00 0.00 46 1011.0
20260506100706 66 22 0.0 5.2 0.00 0.00 0.00 47 1011.0
20260506100206 65 350 0.0 5.2 0.00 0.00 0.00 47 1011.0
20260506095706 64 310 0.0 5.2 0.00 0.00 0.00 49 1011.0
20260506095206 65 337 3.5 3.5 0.00 0.00 0.00 49 1011.0
20260506094707 64 294 0.0 5.2 0.00 0.00 0.00 50 1011.0
20260506094206 64 159 0.0 5.2 0.00 0.00 0.00 51 1011.0
20260506093705 63 166 0.0 5.2 0.00 0.00 0.00 52 1011.0
20260506093207 63 284 2.6 5.2 0.00 0.00 0.00 52 1011.0
20260506092706 63 127 1.7 5.2 0.00 0.00 0.00 52
20260506092206 63 159 3.5 4.3 0.00 0.00 0.00 52 1011.0
20260506091705 63 114 0.0 4.3 0.00 0.00 0.00 53 1011.0
20260506091208 63 127 2.6 4.3 0.00 0.00 0.00 54 1011.0
20260506090706 63 154 1.7 3.5 0.00 0.00 0.00 55 1011.0
20260506090207 62 300 1.7 3.5 0.00 0.00 0.00 56 1011.0
20260506085705 62 308 0.0 3.5 0.00 0.00 0.00 55 1011.0
20260506085207 63 147 1.7 3.5 0.00 0.00 0.00 56 1011.0
20260506084706 62 310 0.0 4.3 0.00 0.00 0.00 58 1011.0
20260506084205 62 108 0.0 4.3 0.00 0.00 0.00 58 1011.0
20260506083706 62 269 0.0 4.3 0.00 0.00 0.00 58 1011.0
20260506083207 61 181 3.5 4.3 0.00 0.00 0.00 59 1011.0
20260506082707 61 175 2.6 4.3 0.00 0.00 0.00 60 1011.0
20260506081706 61 168 0.0 3.5 0.00 0.00 0.00 62 1011.0
20260506081206 61 180 2.6 3.5 0.00 0.00 0.00 63 1011.0
20260506080707 61 167 0.0 3.5 0.00 0.00 0.00 62 1011.0
20260506080206 60 175 0.0 3.5 0.00 0.00 0.00 64 1011.0
20260506073208 60 181 0.0 3.5 0.00 0.00 0.00 59 1011.0
20260506072706 59 165 0.0 2.6 0.00 0.00 0.00 62 1011.0
20260506072208 59 129 0.0 2.6 0.00 0.00 0.00 66 1011.0
20260506071705 58 286 0.0 2.6 0.00 0.00 0.00 70 1011.0
20260506071206 58 137 0.0 2.6 0.00 0.00 0.00 70 1011.0
20260506070206 56 318 0.0 3.5 0.00 0.00 0.00 72 1011.0
20260506062208 53 302 0.0 5.2 0.00 0.00 0.00 79 1011.0
20260506061706 52 313 1.7 5.2 0.00 0.00 0.00 80 1011.0
20260506061206 52 310 1.7 3.5 0.00 0.00 0.00 82 1011.0
20260506060706 51 309 0.0 4.3 0.00 0.00 0.00 82 1011.0
20260506060206 51 121 0.0 4.3 0.00 0.00 0.00 81 1011.0
20260506051206 49 321 0.0 0.0 0.00 0.00 0.00 84 1010.0
20260506050705 50 321 0.0 0.0 0.00 0.00 0.00 84 1010.0
20260506050207 50 321 0.0 0.0 0.00 0.00 0.00 84 1010.0
20260506044706 50 321 0.0 2.6 0.00 0.00 0.00 85 1010.0
20260506044206 50 321 0.0 2.6 0.00 0.00 0.00 85 1010.0
20260506043705 50 324 0.0 2.6 0.00 0.00 0.00 85 1010.0
20260506043205 50 324 0.0 0.0 0.00 0.00 0.00 85 1010.0
20260506042706 50 325 0.0 3.5 0.00 0.00 0.00 86 1010.0
20260506042207 50 325 0.0 3.5 0.00 0.00 0.00 86 1010.0
20260506041706 50 325 0.0 1.7 0.00 0.00 0.00 87 1010.0
20260506041206 50 330 0.0 2.6 0.00 0.00 0.00 88 1010.0
20260506040707 50 330 0.0 2.6 0.00 0.00 0.00 88 1010.0
20260506040207 50 328 0.0 2.6 0.00 0.00 0.00 89 1010.0
20260506035706 50 329 0.0 2.6 0.00 0.00 0.00 89 1010.0
20260506034706 49 308 0.0 0.0 0.00 0.00 0.00 90 1010.0
20260506033705 50 294 0.0 3.5 0.00 0.00 0.00 90 1010.0
20260506033205 50 282 0.0 3.5 0.00 0.00 0.00 91 1010.0
20260506032706 50 353 0.0 3.5 0.00 0.00 0.00 91 1009.0
20260506032205 50 301 2.6 3.5 0.00 0.00 0.00 91 1009.0
20260506031706 51 319 0.0 3.5 0.00 0.00 0.00 91 1009.0
20260506031206 50 340 0.0 3.5 0.00 0.00 0.00 91 1010.0
20260506030208 50 320 0.0 0.0 0.00 0.00 0.00 91 1010.0
20260506025206 50 302 0.0 2.6 0.00 0.00 0.00 92 1010.0
20260506024706 50 302 0.0 2.6 0.00 0.00 0.00 92 1010.0
20260506024207 50 302 0.0 0.0 0.00 0.00 0.00 92 1010.0
20260506023705 50 302 0.0 0.0 0.00 0.00 0.00 92 1010.0
20260506023207 50 302 0.0 0.0 0.00 0.00 0.00 92 1010.0
20260506022709 50 302 0.0 0.0 0.00 0.00 0.00 92 1010.0
20260506022206 50 302 0.0 0.0 0.00 0.00 0.00 92 1010.0
20260506021705 50 302 0.0 2.6 0.00 0.00 0.00 92 1010.0
20260506020707 50 302 0.0 2.6 0.00 0.00 0.00 92 1010.0
20260506015206 51 303 0.0 1.7 0.00 0.00 0.00 91 1010.0
20260506014210 51 302 0.0 1.7 0.00 0.00 0.00 90 1010.0
20260506013707 51 302 0.0 1.7 0.00 0.00 0.00 90 1010.0
20260506013208 51 242 0.0 1.7 0.00 0.00 0.00 90 1010.0
20260506012706 51 300 0.0 1.7 0.00 0.00 0.00 90 1010.0
20260506012207 52 300 0.0 1.7 0.00 0.00 0.00 90 1010.0
20260506011209 52 316 0.0 0.0 0.00 0.00 0.00 89 1010.0
20260506010211 53 182 0.0 0.0 0.00 0.00 0.00 90 1010.0
20260506005707 53 181 0.0 0.0 0.00 0.00 0.00 90 1010.0
20260506005208 53 312 0.0 1.7 0.00 0.00 0.00 90 1010.0
20260506004207 53 312 0.0 0.0 0.00 0.00 0.00 90 1010.0
20260506003208 53 328 0.0 0.0 0.00 0.00 0.00 91 1010.0
20260506001708 53 321 0.0 0.0 0.00 0.00 0.00 91 1010.0
20260506001208 53 321 0.0 0.0 0.00 0.00 0.00 91 1010.0
20260506000708 53 321 0.0 0.0 0.00 0.00 0.00 91 1010.0
20260506000208 53 321 0.0 2.6 0.00 0.00 0.00 91 1010.0
20260505235208 53 321 0.0 3.5 0.00 0.00 0.00 91 1010.0
20260505234706 53 318 0.0 3.5 0.00 0.00 0.00 91 1010.0
20260505234208 53 294 0.0 3.5 0.00 0.00 0.00 90 1010.0
20260505233707 53 317 0.0 3.5 0.00 0.00 0.00 91 1010.0
20260505233209 53 290 0.0 3.5 0.00 0.00 0.00 91 1010.0
20260505232706 54 290 0.0 3.5 0.00 0.00 0.00 91 1010.0
20260505232206 54 290 0.0 2.6 0.00 0.00 0.00 91 1010.0
20260505231706 53 298 0.0 2.6 0.00 0.00 0.00 91 1010.0
20260505231206 54 298 0.0 2.6 0.00 0.00 0.00 90 1010.0
20260505230707 54 298 0.0 2.6 0.00 0.00 0.00 88 1010.0
20260505225209 55 294 0.0 0.0 0.00 0.00 0.00 85 1010.0
20260505224707 55 294 0.0 0.0 0.00 0.00 0.00 85 1010.0
20260505224209 55 128 0.0 2.6 0.00 0.00 0.00 84 1010.0
20260505223208 55 128 0.0 4.3 0.00 0.00 0.00 83 1010.0
20260505222706 55 128 0.0 4.3 0.00 0.00 0.00 82 1010.0
20260505222206 55 304 0.0 4.3 0.00 0.00 0.00 81 1010.0
20260505221707 56 313 0.0 4.3 0.00 0.00 0.00 80 1010.0
20260505221207 56 309 2.6 4.3 0.00 0.00 0.00 80 1010.0
20260505220706 56 316 0.0 4.3 0.00 0.00 0.00 80 1010.0
20260505215706 56 281 3.5 6.1 0.00 0.00 0.00 79 1011.0
20260505215208 56 310 0.0 6.1 0.00 0.00 0.00 79 1011.0
20260505214706 56 324 0.0 6.1 0.00 0.00 0.00 79 1011.0
20260505214206 55 328 0.0 5.2 0.00 0.00 0.00 81 1010.0
20260505213707 55 318 2.6 5.2 0.00 0.00 0.00 81 1010.0
20260505213205 56 306 0.0 3.5 0.00 0.00 0.00 78 1010.0
20260505212706 57 328 0.0 3.5 0.00 0.00 0.00 78 1010.0
20260505212206 57 310 0.0 3.5 0.00 0.00 0.00 79 1010.0
20260505211705 57 336 2.6 2.6 0.00 0.00 0.00 80 1010.0
20260505211206 56 353 0.0 2.6 0.00 0.00 0.00 84 1010.0
20260505210705 56 341 0.0 2.6 0.00 0.00 0.00 85 1010.0
20260505210206 56 341 0.0 0.0 0.00 0.00 0.00 85 1010.0
20260505205705 56 341 0.0 2.6 0.00 0.00 0.00 85 1010.0
20260505205208 56 341 0.0 2.6 0.00 0.00 0.00 84 1010.0
20260505204706 56 343 0.0 0.0 0.00 0.00 0.00 84 1010.0
20260505203707 56 334 0.0 0.0 0.00 0.00 0.00 84 1010.0
20260505203205 56 334 0.0 0.0 0.00 0.00 0.00 83 1010.0
20260505202705 56 334 0.0 0.0 0.00 0.00 0.00 83 1010.0
20260505202206 56 334 0.0 0.0 0.00 0.00 0.00 83 1010.0
20260505200707 56 311 0.0 0.0 0.00 0.00 0.00 83 1010.0
20260505200206 56 311 0.0 2.6 0.00 0.00 0.00 83 1010.0
20260505195706 55 311 0.0 3.5 0.00 0.00 0.00 83 1009.0
20260505194706 55 311 1.7 3.5 0.00 0.00 0.00 83 1009.0
20260505194206 55 306 2.6 3.5 0.00 0.00 0.00 83 1009.0
20260505193707 56 304 0.0 4.3 0.00 0.00 0.00 84 1009.0
20260505193207 56 319 1.7 4.3 0.00 0.00 0.00 84 1009.0
20260505192705 55 307 2.6 4.3 0.00 0.00 0.00 83 1009.0
20260505192207 55 337 3.5 7.0 0.00 0.00 0.00 83 1009.0
20260505191706 56 312 2.6 7.0 0.00 0.00 0.00 83 1009.0
20260505191206 56 338 0.0 7.0 0.00 0.00 0.00 83 1009.0
20260505190707 56 319 4.3 7.0 0.00 0.00 0.00 85 1009.0
20260505190208 55 313 5.2 7.0 0.00 0.00 0.00 90 1009.0
20260505185205 56 324 3.5 5.2 0.00 0.00 0.00 92 1009.0
20260505184207 56 295 1.7 4.3 0.00 0.00 0.00 93 1009.0
20260505183209 56 315 2.6 3.5 0.00 0.00 0.00 92 1009.0
20260505182706 56 306 0.0 2.6 0.00 0.00 0.00 92 1009.0
20260505182207 56 320 0.0 2.6 0.00 0.00 0.00 92 1009.0
20260505181206 56 308 0.0 0.0 0.00 0.00 0.00 91 1009.0